Regional Weather Roundup
Issued by NWS

Home | Current Version | Previous Version | Graphics & Text | Print | Product List | Glossary On
Versions: 1 2 3 4 5 6 7 8 9 10 11 12 13 14 15 16 17 18 19 20 21 22 23 24 25 26 27 28 29 30 31 32 33 34 35 36 37 38 39 40 41 42 43 44 45 46 47 48 49 50
000
ASUS43 KDTX 230310
RWRMI
MICHIGAN HOURLY REGIONAL WEATHER ROUNDUP
NATIONAL WEATHER SERVICE DETROIT/PONTIAC MI
1000 PM EST MON DEC 22 2014

NOTE: "FAIR" INDICATES FEW OR NO CLOUDS BELOW 12,000 FEET WITH NO
SIGNIFICANT WEATHER AND/OR OBSTRUCTION TO VISIBILITY.

MIZ047>049-052>055-059>063-066>070-074>076-081>083-230400-
SOUTHEAST LOWER MICHIGAN

CITY           SKY/WX    TMP DP  RH WIND       PRES   REMARKS
ADRIAN         LGT RAIN  35  33  92 E9        29.84F FOG     WCI  28
ALMA           RAIN      33  32  96 NE9       29.88S WCI  25
ANN ARBOR      CLOUDY    37  32  82 E9        29.86F WCI  30
BAD AXE        CLOUDY    34  32  93 E5        29.94F WCI  30
CARO           CLOUDY    33  30  90 E7        29.90F WCI  27
DETROIT CITY   CLOUDY    38  32  79 E9        29.90F WCI  31
DETROIT        CLOUDY    37  33  85 NE8       29.89F WCI  31
FLINT          CLOUDY    36  30  79 E7        29.89F WCI  30
GROSSE ILE     CLOUDY    36  34  93 NE6       29.86F WCI  31
HILLSDALE      LGT RAIN  35  35  99 E12       29.79F WCI  27
HOWELL         CLOUDY    34  32  91 E13       29.85F WCI  25

CITY           SKY/WX    TMP DP  RH WIND       PRES   REMARKS
JACKSON        LGT RAIN  35  32  88 E12       29.83F FOG     WCI  27
LAMBERTVILLE   LGT RAIN  37  34  87 E7        29.85F WCI  32
LANSING        LGT RAIN  35  31  85 E12       29.85F FOG     WCI  27
LAPEER         DRIZZLE   33  30  90 SE6       29.90F WCI  27
MASON          LGT RAIN  34  31  88 E8        29.84F WCI  27
MONROE         CLOUDY    39  34  81 E10       29.85F WCI  32
MT. CLEMENS    CLOUDY    35  35  99 E8        29.89F WCI  29
PONTIAC        CLOUDY    33  30  88 E9        29.87F WCI  25
PORT HOPE        N/A     35  30  82 SE13      29.95S WCI  26
PORT HURON     CLOUDY    34  30  86 E7        29.93F WCI  28
TRI CITIES     CLOUDY    35  30  82 E8        29.91F WCI  29
TROY           CLOUDY    37  32  84 E8        29.91F WCI  30
SAGINAW HB     CLOUDY    34  32  93 E6        29.89F WCI  29
$$
MIZ043>046-050>051-056>058-064>065-071>073-077>080-230400-
SOUTHWEST LOWER MICHIGAN

CITY           SKY/WX    TMP DP  RH WIND       PRES   REMARKS
BATTLE CREEK   LGT RAIN  36  32  85 E12       29.79F FOG     WCI  28
BENTON HARBOR  LGT RAIN  37  36  96 E15       29.72F FOG     WCI  28
BIG RAPIDS     LGT SNOW  33  32  96 E9        29.83F WCI  25
COLDWATER      CLOUDY    36  34  92 MISG      29.79S
FREMONT        MIX PCPN  34  33  95 E12G21    29.79F WCI  25
HOLLAND        LGT RAIN  38  36  92 E14       29.77F FOG     WCI  30
GRAND RAPIDS   LGT RAIN  34  32  92 E14       29.81S FOG     WCI  25
IONIA          MIX PCPN  34  33  98 E10       29.83F WCI  26
KALAMAZOO      LGT RAIN  37  33  85 E9        29.77F FOG     WCI  30
LUDINGTON      LGT SNOW  36  33  88 E12       29.79F WCI  27
MARSHALL       LGT RAIN  34  32  93 E9        29.79F WCI  26
MOUNT PLEASANT MIX PCPN  33  31  94 E6        29.88F WCI  27
MUSKEGON       LGT RAIN  37  34  89 E14       29.77F FOG     WCI  28
SOUTH HAVEN    LGT RAIN  38  36  91 E10       29.74F WCI  31
$$
MIZ016>042-230400-
NORTHERN LOWER MICHIGAN

CITY           SKY/WX    TMP DP  RH WIND       PRES   REMARKS
ALPENA         CLOUDY    33  28  81 SE8       29.98S WCI  26
BEAVER ISLAND  CLOUDY    33  28  81 SE14      29.92S WCI  23
BELLAIRE       LGT SNOW  32  28  83 E3        29.91F
CADILLAC       LGT SNOW  30  28  93 E13       29.83F WCI  20
CHARLEVOIX     CLOUDY    32  27  81 SE9       29.94S WCI  24
FRANKFORT      MIX PCPN  33  31  94 E7        29.82F WCI  26
GAYLORD        CLOUDY    29  26  89 SE12      29.90F WCI  19
GRAYLING       LGT SNOW  31  29  93 E10       29.91S WCI  22
HARBOR SPRINGS CLOUDY    32  27  83 E13       29.93F WCI  22
HOUGHTON LAKE  CLOUDY    31  27  85 E10       29.90S WCI  22
MANISTEE       CLOUDY    34  28  80 E14       29.81F WCI  24
OSCODA         CLOUDY    35  32  89 E7        29.96S WCI  29
PELLSTON       CLOUDY    32  27  81 E12       29.95S WCI  23
ROGERS CITY    CLOUDY    32  29  90 E7        29.99F WCI  26
TRAVERSE CITY  LGT SNOW  32  29  88 E5        29.87F FOG     WCI  27
$$
MIZ007>008-015-230400-
EASTERN UPPER MICHIGAN

CITY           SKY/WX    TMP DP  RH WIND       PRES   REMARKS
KINROSS        CLOUDY    30  28  93 E12       29.97S WCI  21
MACKINAC ISLAN CLOUDY    34  27  77 SE14G22   29.95S WCI  24
NEWBERRY       CLOUDY    32  29  90 E13G22    29.93S WCI  22
S. S. MARIE    CLOUDY    32  26  78 E9        30.02R WCI  24
MUNISING         N/A     35  27  72 SE13G21   29.88F WCI  26
$$
MIZ004>006-011>014-085-230400-
CENTRAL UPPER MICHIGAN

CITY           SKY/WX    TMP DP  RH WIND       PRES   REMARKS
MANISTIQUE     CLOUDY    33  30  89 E13G24    29.90S WCI  23
ESCANABA       CLOUDY    34  30  86 E13       29.85F WCI  25
MENOMINEE      CLOUDY    34  30  86 E12       29.80F WCI  25
SAWYER-GWINN   LGT SNOW  32  28  86 SE7       29.84F WCI  26
$$
MIZ001>003-009>011-084-230400-
WESTERN UPPER MICHIGAN

CITY           SKY/WX    TMP DP  RH WIND       PRES   REMARKS
IRON MOUNTAIN  LGT SNOW  32  30  92 E7        29.79F FOG     WCI  26
HOUGHTON       CLOUDY    33  30  88 E9        29.83R WCI  25
COPPER HARBOR    N/A     36  29  75 SW15G25   29.84S WCI  27
IRONWOOD       CLOUDY    34  30  86 E6        29.72S WCI  29
$$

ABBREVIATIONS USED IN REMARKS
   TC - TEMPERATURE IN CELSIUS
  WCI - WIND CHILL INDEX
   HX - HEAT INDEX
  VSB - VISIBILITY




USA.gov is the U.S. government's official web portal to all federal, state and local government web resources and services.